307  
ASUS45 KBOI 091410  
RWRID  
 
IDAHO REGIONAL WEATHER ROUNDUP  
NATIONAL WEATHER SERVICE BOISE ID  
800 AM MDT SUN AUG 09 2020  
 
NOTE: "FAIR" INDICATES FEW OR NO CLOUDS BELOW 12000 FEET  
WITH NO SIGNIFICANT WEATHER AND/OR S TO VISIBILITY
 
 
IDZ012-014-091500-  
SOUTHWEST IDAHO  
 
 
CITY SKY/WX TMP DP RH WIND PRES REMARKS
 
BOISE SUNNY 62 48 60 W5 30.09R  
CALDWELL SUNNY 64 48 56 W8 30.09R  
MOUNTAIN HOME SUNNY 64 45 49 NW13 30.08R  

 
 
IDZ016-017-091500-  
SOUTHCENTRAL IDAHO  
 
 
CITY SKY/WX TMP DP RH WIND PRES REMARKS
 
BURLEY SUNNY 57 43 59 S6 30.13R  
JEROME SUNNY 62 37 39 SW6 30.13R  
TWIN FALLS SUNNY 63 35 35 SW13 30.14R  

 
 
IDZ019>023-091500-  
SOUTHEAST IDAHO  
 
 
CITY SKY/WX TMP DP RH WIND PRES REMARKS
 
IDAHO FALLS SUNNY 53 44 71 CALM 30.15R  
POCATELLO SUNNY 60 40 47 S5 30.15R  
REXBURG SUNNY 54 42 64 NE5 30.15R  

 
 
IDZ006-010-011-018-031-032-091500-  
CENTRAL IDAHO MOUNTAINS  
 
 
CITY SKY/WX TMP DP RH WIND PRES REMARKS
 
MCCALL SUNNY 58 42 55 N6 30.17R  
HAILEY SUNNY 52 36 54 NW8 30.21R  
STANLEY N/A 42 33 70 CALM 30.28R  
SALMON SUNNY 54 44 69 CALM 30.17R  
CHALLIS SUNNY 57 36 45 CALM 30.18R  

 
 
IDZ002-004-006-007-026-091500-  
NORTHERN IDAHO  
 
 
CITY SKY/WX TMP DP RH WIND PRES REMARKS
 
LEWISTON SUNNY 63 45 51 SE3 30.14R  
LOWELL N/A 53 50 89 CALM 30.18R  
COEUR D'ALENE PTSUNNY 55 50 83 N3 30.17R  
MULLAN PASS SUNNY 49 39 68 NW6 30.23R  

 
 
 
CLICK HERE TO GO TO PREVIOUS BULLETINS.

The Nexlab ID Page Main Text Page